Location: Songkhla
(7.2000°N, 100.6000°E)
Time: 03:11:52
(UTC+07:00)

BRICSAT 2 - Pass Details

Date: 18 June 2021
Orbit: 295 x 638 km, 28.5° (Epoch: 28 July)

Event Time Altitude Azimuth Distance (km) Brightness Sun altitude
Rises 21:23:33 0° 312° (NW) 2,770 ? -37.4°
Reaches altitude 10° 21:25:56 10° 322° (NW) 1,924 ? -37.8°
Enters shadow 21:26:20 12° 324° (NW) 1,791 ? -37.9°
Maximum altitude 21:30:05 35° 27° (NNE) 1,016 - -38.7°
Drops below altitude 10° 21:34:30 10° 93° (E) 2,044 - -39.5°
Sets 21:37:06 0° 102° (ESE) 2,968 - -40.0°
